RH
25 25 25 26 26 27 27 26 26 24 23 21 20 18 16 15 14 13 13 14 15 16 17 17 16 15 13 11 10 9 9 9 10 9 11 18 19 18 20 20 19 19 17 16 17 17 17 16 14 12 10 9 6 5 4 3 3 5 12 18 18 17 16 15 14 13 11 10 9 7 7 6 6 5 5 5 5 4 4 5 6 9 12 15 18 21 22 22
25 25 25 25 26 27 27 28 28 27 26 25 23 22 20 19 17 15 14 13 13 14 15 16 17 17 16 14 13 11 9 9 9 10 12 13 11 12 17 19 19 21 19 17 17 17 17 17 16 14 11 10 8 6 4 4 3 3 6 14 24 25 21 18 15 13 12 10 9 8 7 6 6 6 6 5 5 5 4 4 5 8 10 13 18 21 21 21
26 26 26 26 26 26 27 28 28 28 28 27 26 25 24 23 21 19 17 16 14 14 13 14 15 16 17 16 16 14 12 10 9 11 12 11 11 11 12 15 19 21 21 20 18 17 17 17 18 17 13 11 9 7 5 4 3 3 2 11 29 33 26 21 16 14 12 10 9 8 8 7 7 6 6 6 5 5 5 5 5 6 9 12 18 19 19 20
27 27 26 26 26 26 26 27 28 28 28 28 28 27 26 26 24 23 21 19 18 16 15 14 14 15 16 16 17 16 15 13 11 12 12 11 11 11 11 12 15 20 22 22 20 19 19 19 19 18 16 13 10 8 6 5 3 4 2 9 29 37 30 25 19 15 12 10 10 8 8 7 7 7 6 6 6 5 5 5 5 7 10 12 15 15 16 18
28 28 27 27 27 27 27 27 27 27 27 28 29 28 28 27 27 26 24 22 20 19 18 17 15 14 14 15 16 16 16 15 14 14 12 12 11 11 11 11 12 16 19 21 21 21 21 20 20 20 19 15 12 10 7 6 4 4 4 8 25 37 34 28 21 17 13 11 10 9 8 8 7 7 7 6 6 6 5 5 5 7 9 10 10 11 12 13
29 29 28 28 28 28 28 28 28 27 27 27 28 28 29 28 28 28 27 26 23 21 20 19 18 17 15 14 14 15 16 16 16 16 14 13 12 12 11 11 12 12 14 18 21 22 22 22 22 21 21 18 13 11 9 7 5 4 4 7 22 36 36 30 24 19 15 12 11 10 9 8 8 7 7 7 6 6 6 6 6 5 6 6 6 7 8 11
31 30 28 28 28 28 28 28 28 28 28 28 27 28 28 29 28 28 28 28 27 24 22 21 20 19 18 15 13 13 14 16 16 16 16 14 13 12 12 12 12 11 11 13 18 22 23 23 23 23 22 20 16 12 10 8 6 4 4 8 21 34 36 32 27 21 17 14 12 11 10 9 8 8 7 7 7 6 6 6 6 5 5 5 5 6 8 9
32 31 29 28 28 28 28 28 28 29 29 28 28 28 28 29 29 28 29 29 29 28 25 23 21 20 20 18 16 13 13 17 17 16 16 15 15 13 12 13 13 13 11 11 15 19 23 24 24 24 23 22 18 14 11 9 8 5 4 8 18 31 36 33 28 23 19 15 13 11 10 10 8 8 9 9 8 8 7 6 5 5 5 6 7 8 8 9
33 32 31 29 29 28 27 27 27 28 28 28 28 28 28 28 28 29 29 30 31 30 29 26 23 22 20 19 18 15 18 19 16 15 16 15 15 14 13 12 13 13 12 12 12 14 19 23 25 25 24 23 20 16 12 10 8 5 5 6 15 28 33 33 30 25 21 17 14 12 11 10 9 9 10 10 9 10 8 7 7 6 7 8 9 9 9 13
35 34 33 31 30 29 28 28 27 28 27 27 27 27 28 28 29 29 29 30 32 33 32 30 28 24 21 20 18 18 24 22 16 14 15 16 16 15 14 13 13 14 14 13 12 14 20 24 26 25 24 23 21 17 13 11 9 6 5 4 14 27 30 32 32 26 22 18 15 13 12 10 9 10 12 11 11 11 10 9 8 8 10 10 9 10 13 17
36 35 34 32 32 30 30 29 28 28 28 28 27 27 28 29 30 29 29 31 32 34 34 33 31 28 26 21 18 24 29 24 18 16 15 16 16 16 15 14 13 13 14 14 14 17 20 22 23 23 23 22 21 19 15 12 9 7 5 5 14 24 28 32 32 28 24 19 16 14 12 11 10 10 13 13 12 13 12 11 11 11 12 11 11 14 17 18
36 34 33 32 31 30 30 30 30 29 29 29 28 28 27 28 30 30 30 31 33 34 35 35 34 32 30 24 23 29 30 24 20 17 16 16 16 16 15 14 14 13 14 15 16 17 18 18 20 22 23 22 21 20 16 13 10 8 6 7 14 21 29 34 32 29 25 20 18 15 13 11 10 11 12 12 13 13 12 12 12 13 12 10 13 17 17 16
32 31 30 29 29 29 29 29 30 30 30 29 29 29 29 28 29 31 31 32 33 34 35 35 35 36 32 28 31 31 26 25 23 19 18 18 17 17 16 15 14 14 14 15 16 17 16 16 19 20 21 22 22 20 17 14 11 8 6 8 15 23 31 35 32 29 25 21 19 16 13 12 11 11 12 12 12 12 12 14 14 13 11 12 15 17 16 17
27 26 26 26 26 26 27 27 28 29 30 30 30 30 30 29 29 30 31 32 34 34 35 35 36 37 33 33 37 32 26 27 27 24 22 20 19 17 16 16 14 14 14 15 17 16 14 15 16 17 20 22 22 20 18 15 12 9 6 7 16 29 35 34 33 29 24 21 19 16 13 12 12 12 12 11 11 12 13 14 15 14 12 14 18 16 17 23
22 21 22 22 22 22 23 24 25 27 28 29 30 30 30 30 30 31 30 30 33 34 34 35 36 36 34 38 40 34 30 30 30 27 22 20 20 17 17 16 14 14 14 15 17 17 16 16 17 19 22 24 23 22 19 16 13 9 7 6 14 31 37 34 33 30 24 21 19 17 14 13 12 12 12 11 10 10 14 21 21 18 16 17 22 26 26 27
17 16 16 16 16 16 16 18 19 21 24 26 28 29 30 31 30 31 31 30 32 34 35 35 35 35 37 42 42 38 35 33 32 26 21 22 21 18 18 17 15 14 14 15 17 17 17 17 19 22 25 24 23 23 20 17 14 10 8 6 14 32 39 35 33 30 25 22 20 17 15 14 13 13 12 14 21 21 23 33 30 20 20 21 31 43 38 27
11 10 10 9 9 9 9 10 11 13 16 20 24 27 29 31 31 31 31 30 31 34 35 35 34 33 39 46 43 40 39 35 32 26 22 24 22 20 19 17 15 14 14 14 15 16 16 18 19 21 23 23 23 23 21 18 15 11 9 6 15 33 39 35 33 31 27 24 21 18 16 15 14 13 12 19 41 53 43 36 34 36 42 39 40 48 39 26
7 6 5 5 5 5 5 5 6 7 9 12 17 23 28 32 33 32 31 31 32 33 34 36 36 36 42 50 46 42 41 37 33 28 26 27 25 22 21 19 16 14 14 14 14 16 17 18 20 20 21 21 21 22 21 19 15 12 10 8 16 33 39 36 33 30 28 25 20 18 17 16 15 14 14 18 40 67 64 45 42 50 54 43 37 39 34 26
4 4 4 3 4 3 3 4 4 4 4 6 8 14 22 29 33 32 32 32 31 34 37 39 39 38 44 51 49 44 42 38 34 30 28 28 26 24 22 20 17 14 14 14 14 15 16 18 18 17 17 18 19 22 22 18 14 11 11 11 18 34 40 38 35 30 27 25 21 19 17 17 17 14 17 24 33 52 69 69 63 56 47 34 29 27 26 27
3 4 3 3 3 3 3 3 3 3 4 4 5 7 12 21 29 32 31 32 35 38 41 42 43 40 45 54 52 46 44 40 35 31 29 28 27 26 24 20 16 15 14 14 15 16 17 17 15 14 17 21 23 25 22 17 14 11 12 13 18 33 41 39 37 32 27 25 22 20 18 17 19 18 21 31 37 39 51 62 61 58 51 45 43 31 23 31
4 4 4 4 4 4 4 3 3 3 3 3 4 4 6 10 20 28 31 33 38 43 44 46 48 46 50 59 56 49 46 41 35 32 30 30 29 26 24 20 16 14 13 15 17 17 18 15 14 19 26 29 27 25 21 16 13 11 12 14 17 30 40 39 37 35 29 25 23 21 20 18 19 22 24 32 42 40 38 39 41 49 48 52 65 50 28 37
6 5 6 5 5 5 4 4 4 4 4 4 4 4 4 6 10 19 29 35 39 44 48 50 50 50 58 66 60 51 48 43 37 33 32 31 31 28 24 20 16 14 14 15 16 17 16 14 18 27 32 32 28 25 21 16 13 11 12 14 20 30 39 39 36 35 31 26 24 22 22 21 19 22 26 33 41 39 36 33 36 45 42 48 73 73 52 50
8 9 9 7 7 7 8 8 5 4 5 4 4 4 4 4 6 10 20 31 38 44 48 53 55 57 67 73 63 53 49 46 39 34 34 32 31 30 25 20 16 13 14 15 15 15 13 15 24 32 34 33 30 25 20 16 13 12 12 15 23 33 38 39 37 34 31 27 24 23 22 21 20 21 25 29 32 36 36 35 35 38 37 38 49 69 78 68
12 13 13 13 12 12 23 32 26 18 11 7 6 5 5 5 4 7 13 23 34 42 47 54 58 62 74 77 64 54 50 48 41 35 35 33 31 30 25 21 17 13 14 15 18 19 19 23 31 36 36 34 30 25 20 16 13 12 12 16 25 35 39 39 39 34 30 27 24 23 22 21 21 21 24 25 27 34 36 35 34 33 36 29 24 58 91 82
18 21 22 23 21 20 42 66 65 51 34 20 11 5 6 7 6 5 6 15 29 38 46 53 57 68 82 79 63 54 53 49 41 35 35 35 34 31 25 21 17 13 14 16 20 22 25 32 37 38 37 35 31 26 20 16 14 13 12 16 26 36 40 40 41 37 31 27 25 24 21 21 21 20 23 25 27 32 32 35 34 30 30 19 25 69 93 86
22 26 32 36 33 34 59 89 93 80 62 43 25 16 8 5 20 26 9 8 23 33 43 49 57 75 84 76 64 57 54 50 43 36 35 37 37 34 26 21 17 14 15 18 22 22 24 33 39 39 38 37 32 27 21 16 14 13 12 17 26 35 40 41 42 40 36 30 27 27 23 21 22 21 22 23 26 30 31 35 35 31 24 14 36 79 85 81
23 28 41 45 42 49 75 99 101 93 85 65 39 27 17 17 52 65 27 7 17 28 40 46 55 74 81 76 70 60 55 53 45 37 37 39 40 35 27 21 16 15 15 18 21 19 23 33 39 39 39 37 34 28 21 17 14 13 14 18 25 33 40 41 41 40 39 35 31 29 26 23 23 22 22 22 25 28 29 33 34 31 23 19 48 81 81 79
24 33 54 57 56 74 96 101 99 100 93 69 47 46 56 66 87 87 45 15 18 25 35 44 53 69 78 78 71 61 58 57 46 38 39 42 42 36 28 21 17 16 15 16 18 17 24 35 39 40 39 37 35 29 21 17 14 14 16 19 24 33 39 41 40 39 39 38 34 31 29 27 25 23 23 23 24 24 25 29 30 28 22 27 62 88 82 79
29 46 73 69 63 86 103 99 101 100 78 63 68 80 95 100 101 95 59 30 36 39 33 40 51 62 75 77 69 63 61 57 47 40 41 43 42 37 28 21 19 20 19 19 22 24 32 43 46 45 42 39 35 28 21 17 15 16 19 20 22 30 39 40 39 37 38 38 35 33 32 30 28 27 24 23 22 20 22 25 24 25 24 29 59 86 82 79
30 57 86 76 67 89 103 100 101 89 70 80 97 100 103 100 98 91 57 39 61 64 39 37 47 57 71 75 68 65 62 55 47 42 42 43 42 37 29 23 22 22 23 27 31 34 41 49 49 46 43 40 35 28 22 18 17 18 19 19 21 29 38 41 39 38 38 38 36 35 34 33 32 30 27 25 23 20 21 22 20 23 28 28 43 69 81 82
31 62 90 77 68 92 102 97 95 80 74 94 101 95 97 100 99 80 50 54 82 78 50 40 44 52 66 72 68 65 61 53 44 40 42 43 42 38 28 23 23 22 23 29 33 36 44 48 44 42 43 41 35 29 23 19 17 17 17 18 21 29 37 39 39 38 38 38 38 37 36 35 34 32 31 28 24 22 21 22 21 21 30 43 51 60 76 85
37 60 79 73 71 93 101 92 86 74 74 90 94 94 97 101 99 70 49 71 93 85 64 46 43 50 60 69 68 63 59 50 41 39 41 41 39 36 27 21 20 18 17 20 24 32 42 45 40 41 44 42 37 31 25 20 18 17 16 16 20 27 36 39 39 38 39 38 38 39 38 37 36 35 34 32 28 27 25 24 27 25 33 58 70 66 75 88
40 51 58 69 85 95 88 78 80 80 87 97 98 101 99 96 95 70 60 85 98 94 78 53 44 48 54 65 65 59 54 46 39 38 40 42 41 35 27 22 20 17 16 17 21 30 40 42 39 41 44 43 40 34 28 23 18 16 15 14 16 21 30 36 38 38 39 39 39 39 40 39 38 37 36 35 33 32 29 26 27 27 32 52 71 76 81 82
38 50 59 73 86 85 77 81 94 97 97 99 99 102 94 84 88 82 82 99 100 94 83 61 48 46 50 59 60 54 50 43 40 39 39 41 41 36 28 23 21 19 21 25 24 26 33 35 34 37 42 43 41 36 29 24 20 17 15 14 15 16 22 30 34 37 38 39 40 40 41 41 39 39 38 37 36 34 33 30 27 25 26 35 53 67 69 60
52 53 62 66 65 68 77 86 92 87 87 97 99 98 93 86 92 95 96 101 98 91 85 68 52 46 49 54 54 51 46 41 40 40 40 39 37 34 28 23 21 19 22 28 27 25 29 31 33 38 43 44 42 36 29 24 21 18 16 15 15 16 20 27 32 35 38 38 40 40 41 41 41 40 39 37 37 34 33 32 30 28 26 28 38 47 48 44
78 80 83 84 80 79 82 82 86 89 93 100 93 87 95 97 97 99 100 101 98 95 87 70 54 49 50 52 51 49 45 41 39 39 41 40 36 34 29 25 22 19 20 24 26 25 27 31 36 41 46 46 44 37 29 25 21 19 17 15 15 15 17 24 30 34 37 37 38 39 40 40 40 40 39 37 36 35 34 32 31 30 31 32 32 32 37 41
78 92 90 87 86 87 91 95 99 99 91 86 85 90 101 99 93 96 101 100 99 100 90 69 55 51 51 51 49 46 44 40 39 39 41 40 36 33 29 26 24 22 21 23 27 30 30 34 36 40 46 48 45 38 30 26 22 19 18 16 17 17 15 19 25 29 33 35 36 38 38 39 39 38 38 37 35 35 34 33 33 33 34 35 29 29 41 49
62 70 67 67 75 81 91 96 92 86 78 79 93 102 101 98 96 99 102 99 96 100 91 70 56 53 52 52 48 45 43 39 37 38 40 39 35 30 28 26 24 24 24 24 29 34 37 41 41 42 47 49 46 40 32 28 24 20 19 18 18 17 14 15 19 22 25 29 31 34 37 37 36 36 37 35 35 36 35 33 34 34 33 34 31 31 41 48
55 65 72 78 85 83 85 84 79 84 90 93 101 103 99 100 100 99 101 97 92 96 90 70 57 54 52 52 49 44 41 38 36 36 37 36 33 30 28 26 24 23 25 28 32 34 38 44 46 45 48 49 46 43 37 31 26 22 21 19 18 17 15 15 16 16 19 22 24 26 31 35 35 35 35 34 35 38 38 34 33 33 33 34 35 34 35 41
58 76 90 89 82 73 74 72 69 84 101 102 101 101 99 100 99 99 102 97 91 94 88 69 57 54 51 50 48 44 40 37 35 34 34 34 32 31 27 25 25 24 27 33 35 36 39 42 45 46 46 46 44 41 39 32 26 23 20 19 18 17 17 18 18 18 18 18 18 19 22 27 32 33 33 34 36 39 41 39 37 36 35 36 40 38 37 47
62 75 85 87 75 60 60 61 63 84 102 102 100 101 99 99 100 99 99 96 95 95 85 68 58 53 50 48 46 42 39 36 34 32 32 31 30 31 28 25 26 26 28 31 31 35 40 41 45 45 39 40 43 43 40 32 26 24 22 19 19 16 16 18 18 18 18 18 18 18 18 21 26 31 32 33 37 39 42 42 40 40 39 40 44 41 41 52
78 78 71 73 73 61 56 61 70 89 101 100 100 100 99 100 100 96 93 95 100 97 82 66 57 52 50 47 44 41 38 36 34 31 30 30 29 31 32 30 29 28 28 30 30 34 42 46 48 47 43 44 47 46 41 34 28 26 23 21 20 18 16 16 16 17 19 20 20 20 21 21 23 28 31 33 36 40 42 43 43 43 43 43 44 42 43 51
73 75 61 59 67 63 60 68 81 94 99 100 101 100 100 100 98 96 96 99 101 94 77 62 55 52 49 45 43 41 39 37 35 32 31 33 33 35 38 37 36 34 31 34 37 38 44 49 50 52 53 53 51 47 42 36 30 27 25 23 21 19 18 17 17 19 22 23 22 21 23 23 22 26 31 33 35 39 42 44 45 46 46 46 45 45 49 54
49 57 52 50 59 62 66 76 88 97 101 100 99 100 101 97 93 96 101 101 98 88 74 62 55 51 48 45 42 41 39 38 38 35 35 39 39 40 44 43 40 38 33 35 42 43 44 48 51 55 57 54 51 48 43 39 35 30 26 23 21 21 20 20 19 20 21 23 23 23 23 22 21 24 30 33 35 39 43 46 49 49 49 49 48 49 53 56
37 46 47 50 59 68 77 86 95 100 100 100 100 100 99 93 92 98 103 100 93 84 74 63 56 52 48 45 43 41 38 38 40 40 39 44 46 44 47 47 45 46 44 42 47 50 50 52 52 54 55 50 46 44 41 40 39 34 28 24 23 22 21 20 20 18 18 20 21 20 20 22 22 25 30 35 38 41 45 49 50 50 52 52 50 50 52 52
45 49 52 62 71 81 90 96 100 100 99 100 100 99 99 96 94 98 100 99 93 85 77 68 59 55 50 47 45 43 40 41 46 47 45 48 51 49 49 48 46 52 56 51 49 51 54 58 57 55 57 54 48 45 43 42 40 36 30 26 24 23 22 21 20 19 18 18 19 18 19 23 25 27 31 36 41 45 48 49 49 50 54 54 50 49 49 49
58 59 67 79 88 95 99 99 99 100 100 101 99 99 101 97 94 97 100 101 98 91 83 73 64 58 53 49 48 48 47 47 51 56 54 53 54 52 50 50 49 54 57 55 51 48 50 59 62 59 59 59 57 53 49 44 41 38 33 28 25 24 24 22 21 20 19 19 19 19 21 24 27 31 34 37 40 45 46 46 46 51 55 55 52 50 49 48
70 73 83 92 96 99 101 100 101 100 100 100 99 100 97 90 91 100 101 101 101 97 91 83 73 65 58 53 54 55 54 53 56 60 58 57 57 54 52 53 54 55 55 55 55 51 50 57 62 62 60 60 60 58 53 47 43 40 35 30 28 25 24 23 22 21 21 20 20 21 23 24 28 33 37 39 40 42 44 45 45 49 53 54 53 51 49 48
84 90 96 99 99 100 100 99 99 99 100 101 99 99 99 95 97 102 101 99 99 96 94 91 83 74 67 62 61 62 60 56 57 58 57 58 59 55 52 53 54 54 54 56 58 57 57 59 61 64 66 64 62 60 56 51 45 41 38 34 30 28 26 25 24 23 22 22 22 23 24 25 29 34 38 40 40 39 41 44 45 47 50 51 52 51 49 48
96 98 100 100 99 100 100 100 102 100 96 93 91 95 100 99 98 100 100 100 100 97 95 98 92 79 74 72 69 70 69 66 64 62 59 60 61 58 55 53 52 52 54 57 59 58 61 64 66 69 71 69 66 63 58 53 48 43 40 37 34 31 29 27 26 25 24 23 23 23 23 24 27 31 35 36 37 36 37 40 42 44 46 48 49 49 49 50
100 100 101 101 100 101 100 97 93 87 81 81 86 91 92 91 93 97 97 98 102 102 98 101 97 82 75 78 76 75 78 75 74 73 67 64 65 63 61 58 57 57 56 56 57 57 61 68 71 72 73 72 69 65 60 55 51 45 42 40 38 34 32 29 27 26 25 24 24 23 24 24 25 27 29 32 35 37 39 40 40 41 42 45 47 50 52 52
100 98 98 97 96 95 91 83 77 75 78 85 91 91 89 92 96 98 94 91 97 102 100 102 101 92 89 89 80 75 79 79 78 79 74 70 69 68 66 63 62 62 61 58 58 59 64 72 75 74 74 73 71 67 63 56 51 48 46 44 42 39 35 32 30 28 27 26 25 24 24 25 26 26 27 29 31 33 36 39 42 43 44 46 49 51 51 52
Wind_Speed
43 44 44 44 45 45 46 46 46 46 46 46 46 46 46 46 47 47 48 49 48 48 47 46 46 46 46 45 45 44 43 42 41 38 37 40 42 44 46 46 44 43 42 42 41 41 39 38 37 35 34 33 32 31 31 31 33 38 42 43 39 35 33 31 31 31 32 33 32 31 29 27 25 24 24 25 26 26 29 32 33 34 33 33 33 32 31 31
45 45 45 45 46 46 47 47 47 48 48 47 47 47 47 47 47 47 47 48 48 48 48 48 47 46 46 46 45 45 45 44 43 40 39 40 41 42 43 44 42 42 41 41 41 41 40 39 38 36 34 33 32 31 31 30 31 33 37 41 38 33 31 31 32 32 33 34 32 31 29 27 26 25 25 25 25 25 26 30 33 34 34 33 33 33 32 33
46 47 47 47 47 47 47 48 48 49 49 49 49 49 48 48 48 48 47 47 48 48 48 49 48 48 47 46 46 46 45 45 44 42 41 41 42 42 41 41 40 40 41 41 41 41 40 39 38 36 35 33 32 31 31 30 30 30 32 37 36 32 31 31 32 33 34 35 33 32 29 27 27 26 26 25 25 25 25 27 30 32 33 34 34 34 34 34
48 48 48 48 48 48 49 49 49 50 50 50 50 50 50 50 49 49 48 48 48 48 48 48 48 49 49 48 47 47 46 46 44 42 42 43 44 43 40 39 39 39 41 42 41 40 40 39 38 37 35 34 32 31 31 29 29 29 29 33 34 32 32 32 32 33 35 35 34 32 29 28 28 27 26 26 25 24 25 26 28 29 31 33 35 35 36 35
49 49 49 50 50 50 50 50 50 51 51 51 51 52 51 51 51 50 50 49 48 48 48 48 48 48 49 49 49 48 47 47 45 43 43 44 45 44 41 39 39 39 41 41 41 40 40 39 38 37 35 34 32 31 30 29 29 28 28 30 33 33 32 32 32 33 35 35 34 32 30 29 28 28 27 27 26 25 25 27 28 30 32 33 34 35 35 34
49 50 50 50 51 51 52 52 52 52 52 52 53 53 53 53 52 52 51 50 49 48 48 48 48 48 48 49 50 49 49 48 46 44 44 45 46 45 42 40 39 40 40 40 40 40 39 38 37 36 35 34 33 31 30 30 29 28 28 29 32 32 32 33 33 33 35 35 34 32 30 29 29 28 28 28 27 26 27 27 29 32 33 32 33 34 33 31
50 50 51 51 51 52 53 53 53 53 54 54 54 54 54 54 53 53 53 52 51 49 48 48 48 48 48 49 49 50 50 48 46 44 45 46 46 45 43 42 41 40 40 39 39 38 38 38 37 36 35 34 33 32 31 31 30 28 27 28 30 32 33 33 33 34 35 35 34 32 30 30 29 28 28 28 27 27 29 30 31 31 31 31 31 31 30 28
50 51 51 52 52 53 53 54 54 55 55 55 55 55 55 55 55 55 54 54 53 51 49 48 47 47 48 49 49 49 48 46 47 46 46 47 47 46 45 43 42 41 41 40 39 38 38 38 37 37 36 35 33 33 33 32 30 28 27 27 30 33 35 35 34 35 35 35 33 31 30 30 30 29 28 28 27 28 29 30 29 28 29 30 29 28 26 25
51 51 52 53 53 53 54 54 55 56 56 56 57 57 56 56 56 56 56 55 55 54 52 50 48 46 47 48 48 48 45 45 49 49 48 47 47 47 46 45 43 42 41 40 40 39 38 38 37 37 37 36 35 35 34 33 30 28 27 29 31 34 37 37 35 35 35 34 33 32 31 31 31 29 28 28 29 28 28 28 26 25 27 28 27 25 24 23
51 52 53 53 54 54 55 56 56 57 57 57 58 58 58 58 58 57 57 56 56 55 54 53 50 48 46 46 47 46 42 44 50 50 48 47 47 47 47 46 43 42 42 41 40 39 38 37 37 38 38 37 37 36 36 33 30 29 29 30 32 34 37 37 35 35 34 34 34 33 32 32 31 30 29 30 29 29 28 26 25 25 26 26 25 24 24 22
52 53 54 55 55 56 57 57 58 58 59 59 59 59 59 59 59 59 58 58 57 57 56 55 53 51 48 47 45 43 41 45 49 50 49 48 47 46 47 46 44 43 42 41 40 39 39 39 38 38 38 38 37 37 36 33 30 29 29 30 32 35 37 37 35 35 33 33 34 33 33 32 31 31 30 31 30 30 28 26 24 25 26 25 25 24 24 22
54 55 56 57 58 59 59 60 60 60 60 60 60 60 60 60 60 60 60 59 58 58 57 56 55 53 50 48 44 40 42 46 48 49 49 48 47 46 46 46 44 43 43 41 40 40 40 40 39 39 39 38 37 37 36 33 31 30 29 30 33 36 37 36 35 34 33 33 34 33 33 32 32 31 31 31 31 31 28 25 25 26 26 26 25 25 23 21
57 58 59 60 62 62 63 63 63 63 62 62 62 62 62 61 61 61 61 60 59 59 58 57 56 54 53 49 42 42 44 45 46 48 48 47 46 46 46 46 44 43 43 42 42 42 42 41 40 40 39 38 38 38 36 33 31 30 30 30 33 36 36 35 34 33 32 33 34 33 34 33 32 32 31 31 31 30 27 25 26 27 27 27 25 25 22 20
60 61 62 63 64 65 66 66 66 65 65 65 64 64 63 62 62 61 61 61 60 60 59 58 57 56 54 48 43 46 45 42 43 45 46 46 45 45 46 46 44 43 43 43 43 42 42 41 41 40 40 39 39 38 36 34 32 30 30 31 34 36 36 36 35 33 32 34 34 33 34 34 33 32 31 30 29 28 27 27 29 29 29 26 24 24 22 20
61 62 63 64 65 66 67 67 67 67 67 67 67 66 65 65 64 62 62 62 61 61 60 59 58 57 55 48 45 48 45 41 42 45 46 45 45 46 46 46 45 44 44 43 43 43 42 41 41 41 40 39 38 38 36 35 33 32 31 32 35 36 36 35 35 33 33 33 33 32 33 34 33 31 30 30 29 29 30 31 32 31 28 25 23 23 22 21
62 63 64 65 66 67 67 68 68 67 68 68 68 68 68 67 66 64 64 63 61 61 60 60 59 58 56 49 47 49 46 42 42 45 47 45 45 46 47 47 46 45 45 44 44 44 43 43 42 41 40 40 39 38 36 35 34 33 32 33 36 36 35 35 34 34 33 33 33 31 32 33 32 30 29 30 32 34 35 33 31 30 27 25 24 23 22 21
63 64 65 65 66 66 67 68 69 69 69 69 69 69 69 70 69 67 66 64 62 61 60 60 59 58 56 51 49 49 47 44 42 44 46 45 45 46 47 47 46 46 45 45 45 45 44 44 44 43 42 42 41 39 38 37 36 34 33 33 36 36 35 35 34 34 33 32 32 30 30 32 32 29 27 30 31 31 32 32 29 27 25 24 24 24 23 21
64 64 64 65 65 66 66 67 69 69 70 70 71 71 71 72 72 70 68 66 64 62 60 60 59 58 56 52 50 49 47 45 43 44 44 44 44 45 46 47 46 46 46 46 45 45 45 45 45 44 44 44 43 42 40 37 34 32 31 32 34 36 36 35 34 35 34 32 31 30 30 32 31 28 29 32 30 27 28 29 27 25 23 23 23 23 22 21
64 63 63 63 63 64 64 65 67 68 69 70 71 72 73 73 73 72 70 68 65 62 60 59 59 59 56 53 51 50 48 46 45 45 45 44 45 45 46 47 46 46 46 46 46 46 46 45 46 46 45 45 44 41 37 32 30 30 30 30 33 35 35 35 35 35 35 33 32 30 30 31 31 29 31 33 31 28 26 24 23 21 21 22 22 22 22 22
63 62 62 62 61 61 62 62 63 65 67 69 70 72 74 75 75 74 72 69 66 63 61 59 59 58 57 54 52 50 49 48 46 46 46 45 46 46 46 47 47 47 47 46 46 45 46 46 46 45 44 43 41 37 32 30 31 31 31 32 34 36 35 36 36 35 34 34 32 31 30 31 32 32 33 34 31 29 27 24 22 20 21 22 23 23 23 24
61 62 61 61 60 60 60 60 60 60 63 65 68 70 71 73 75 75 73 70 67 64 62 59 58 58 56 54 52 50 50 49 47 46 46 46 46 46 47 48 47 48 48 47 46 45 46 46 45 44 42 40 38 35 33 32 32 32 32 33 35 36 36 36 36 35 34 34 33 31 30 31 32 33 34 35 33 30 30 29 26 23 22 23 25 28 27 26
60 61 62 62 61 60 59 58 57 57 58 61 64 66 67 69 72 74 73 71 68 66 63 60 58 56 55 54 52 51 49 48 46 46 46 46 46 47 47 48 48 48 48 48 47 47 47 46 45 44 42 41 39 37 35 34 34 33 33 34 35 37 37 37 36 35 33 33 32 31 30 32 33 33 34 35 34 32 31 30 28 25 24 24 26 29 28 29
60 61 62 61 59 56 53 51 52 52 53 55 58 60 62 64 67 70 73 72 69 66 64 61 58 55 55 54 52 51 49 47 46 46 46 46 46 46 46 47 47 47 48 48 47 46 46 45 44 43 42 42 41 39 37 36 35 35 34 35 36 36 38 37 36 34 33 33 32 31 31 33 32 33 35 35 34 33 32 30 28 26 25 25 24 25 25 28
60 60 59 56 51 45 40 39 42 44 46 48 51 54 56 58 60 64 69 72 69 65 64 63 59 55 54 54 53 52 51 48 46 46 46 46 46 46 46 46 46 46 47 47 45 44 44 42 42 42 41 41 40 39 38 37 36 34 33 34 35 35 37 38 36 34 33 33 33 33 33 34 33 34 35 34 33 32 32 30 28 26 24 24 22 21 21 20
60 57 53 46 39 33 29 28 31 34 37 40 44 47 49 50 52 57 64 69 67 63 63 64 59 54 54 56 54 52 51 49 47 46 46 46 46 47 47 46 46 46 47 46 45 44 43 42 41 41 41 40 40 39 38 36 35 33 33 33 34 35 36 37 36 35 34 34 35 35 36 36 35 35 35 34 33 32 31 31 28 25 23 23 22 21 22 18
56 50 43 36 30 25 23 23 24 27 28 31 35 38 41 41 42 47 55 62 63 60 61 63 60 55 54 55 53 51 50 47 46 46 46 46 46 47 47 46 46 46 46 46 45 45 44 43 42 41 41 41 40 39 38 37 35 34 32 31 33 36 37 36 36 36 35 36 36 36 37 38 37 37 36 35 33 32 32 31 28 26 24 23 23 24 25 22
48 40 33 29 23 18 19 20 20 20 20 23 28 29 31 32 32 37 45 53 57 57 58 62 60 55 53 53 51 50 49 47 46 45 44 45 46 47 47 46 46 46 47 47 47 46 45 44 43 42 42 42 41 40 39 38 36 34 32 31 33 35 36 35 35 36 37 37 38 38 38 39 38 38 36 35 35 34 33 31 29 27 25 23 24 27 26 23
41 31 25 21 16 15 16 16 16 15 15 19 25 26 24 25 28 33 39 45 49 51 55 59 59 55 52 53 52 50 48 46 46 44 43 45 46 46 47 45 44 44 45 47 48 47 45 43 43 42 42 42 42 40 38 37 36 34 31 31 33 34 35 34 34 35 37 38 40 40 39 39 39 38 36 35 36 34 32 31 27 26 26 23 25 29 28 23
36 24 18 15 14 16 14 14 14 13 15 23 28 25 20 23 28 31 35 39 40 44 52 56 56 54 51 52 53 51 48 47 45 43 44 46 46 46 46 44 43 43 44 45 46 45 42 41 40 40 40 40 39 38 37 37 36 33 31 31 33 35 36 35 35 36 37 40 41 41 40 39 39 38 36 35 34 31 29 28 26 25 26 25 27 31 29 25
32 18 14 12 14 17 14 12 12 14 22 31 31 25 21 23 26 29 31 33 33 37 47 53 53 52 51 51 53 51 49 48 46 44 45 46 46 46 45 43 42 43 44 45 46 44 42 40 41 41 41 39 38 37 37 37 36 33 32 33 34 37 37 37 37 37 39 42 42 41 41 40 39 38 36 33 29 27 27 26 25 25 26 27 29 32 30 25
26 13 10 8 13 17 13 11 13 19 28 34 32 28 25 21 22 26 27 28 29 33 42 48 50 50 50 50 51 50 49 48 47 46 46 48 48 47 47 46 45 45 45 46 47 46 44 43 43 43 42 41 40 40 40 39 37 35 34 35 36 38 39 39 39 40 42 44 43 40 40 41 41 38 34 29 25 25 26 25 24 25 26 26 29 32 31 26
22 10 6 4 12 15 11 11 18 27 32 33 29 25 24 21 20 22 24 25 26 30 37 43 47 49 50 49 49 48 48 48 47 46 47 49 49 48 48 47 47 48 48 48 48 47 45 45 44 43 42 41 41 41 41 41 39 37 36 37 39 42 43 43 43 44 46 46 42 40 40 42 42 38 31 26 25 25 24 23 23 24 26 27 28 31 32 28
20 10 6 8 11 10 11 20 30 34 31 26 22 20 21 21 17 18 23 24 22 27 34 39 44 48 50 50 49 48 47 47 46 46 47 48 48 48 49 48 46 46 46 47 48 48 47 46 45 44 43 42 42 41 42 41 40 39 38 39 41 44 46 47 47 46 47 45 42 40 41 43 43 38 31 26 25 24 24 24 24 26 28 27 27 29 30 28
22 15 12 12 12 14 21 29 32 30 26 23 22 18 16 16 17 21 26 22 16 26 33 36 41 46 49 49 48 48 48 47 46 46 47 49 49 48 48 48 47 46 44 43 45 45 46 46 46 45 44 43 43 42 40 38 37 37 38 38 40 43 45 47 47 46 46 45 41 41 43 44 42 37 31 27 25 24 24 24 24 26 28 29 28 29 28 26
28 26 24 23 24 27 30 30 28 26 24 23 22 18 15 17 21 26 27 16 12 27 34 35 40 44 48 49 47 47 48 47 46 46 47 48 49 48 48 48 48 48 46 44 43 43 43 44 44 44 44 43 43 43 41 39 39 38 38 39 40 42 43 45 46 45 45 44 42 42 43 44 41 34 30 27 25 25 25 24 25 25 27 28 29 29 29 29
28 28 26 26 26 27 28 26 24 23 23 21 19 16 17 23 29 32 24 10 14 30 35 37 41 43 46 48 48 48 47 47 46 46 48 48 48 47 47 47 47 47 47 45 44 43 43 43 43 42 42 42 42 41 41 41 42 41 41 42 42 42 43 45 46 45 45 45 43 42 43 42 38 33 30 29 27 27 27 26 26 26 26 27 29 31 33 33
20 19 18 18 19 19 19 20 19 20 21 19 15 15 22 29 32 31 20 11 20 32 34 38 42 42 43 45 47 48 48 47 46 46 48 48 48 48 46 46 46 46 45 44 43 42 42 42 42 42 42 42 41 40 40 40 40 41 42 42 41 41 42 44 46 47 47 47 44 42 42 40 37 33 32 31 29 28 28 26 27 28 27 27 27 29 30 29
13 15 16 18 19 19 19 18 18 18 16 14 15 22 30 32 27 23 18 15 25 33 34 38 40 41 42 42 45 48 47 48 48 47 47 47 47 47 47 46 46 45 44 44 43 42 41 41 41 41 42 42 41 41 42 43 42 41 40 40 40 41 42 44 46 47 48 47 45 43 42 40 38 34 32 30 29 28 27 26 26 27 27 26 26 27 26 24
10 14 16 16 17 18 18 16 14 12 11 15 24 31 32 28 24 23 21 19 27 33 34 36 38 40 42 42 45 46 46 47 48 48 48 47 46 46 47 47 46 45 44 43 43 43 42 42 41 40 41 42 43 44 45 46 45 44 43 42 41 42 43 43 43 44 44 45 44 43 43 42 39 34 31 30 29 28 28 26 26 26 25 25 26 27 25 25
8 10 11 11 11 11 10 9 9 9 12 20 29 31 27 25 24 24 21 21 29 33 33 35 37 39 42 43 44 44 45 46 46 47 46 46 46 45 46 46 45 45 44 44 44 43 42 42 42 41 42 44 46 47 46 45 44 45 44 44 44 44 43 42 42 42 41 41 41 41 42 41 40 35 31 30 30 29 29 29 28 27 26 26 28 29 26 27
4 6 8 7 6 5 4 6 8 11 16 25 28 26 24 23 23 21 20 24 29 31 32 35 37 39 41 43 43 43 44 45 45 46 45 45 45 44 44 45 45 45 45 45 45 44 42 42 42 42 44 46 46 44 43 42 41 41 41 40 42 43 42 42 43 42 41 40 39 38 38 38 38 37 33 31 31 31 31 31 30 28 26 27 29 30 28 26
3 4 6 7 5 4 7 9 13 17 24 28 25 22 21 22 22 20 22 25 28 29 32 34 36 39 40 41 42 43 43 44 45 44 44 43 42 42 42 42 43 43 43 43 43 43 42 42 42 43 43 43 42 40 41 41 40 40 40 39 39 40 39 39 41 40 40 40 38 36 35 34 35 35 34 32 32 32 31 31 30 27 26 27 29 30 28 24
4 5 6 8 5 7 12 15 20 24 27 24 21 21 22 21 21 21 22 24 26 28 31 34 36 38 39 40 41 41 42 43 43 43 42 41 40 40 39 39 40 41 42 42 41 42 42 42 42 43 41 40 39 40 41 41 42 43 42 41 41 40 40 39 39 38 37 37 35 33 33 31 30 31 32 31 31 31 31 30 29 27 25 26 27 28 27 23
3 5 4 5 6 12 16 20 25 26 23 21 22 23 23 20 19 20 21 24 26 28 30 33 35 37 38 39 39 40 41 41 42 42 42 40 40 39 38 38 38 39 40 41 40 40 42 42 43 43 43 43 43 43 44 46 46 45 44 43 42 42 42 42 41 39 37 36 35 34 32 30 28 28 29 30 30 30 30 30 29 27 26 26 27 26 24 23
3 3 2 7 14 20 22 25 26 23 21 23 24 24 22 19 18 19 20 22 25 26 28 31 33 35 36 36 37 38 39 39 40 40 41 40 39 38 37 37 37 36 36 37 38 38 39 40 42 43 44 45 47 48 49 49 49 47 45 44 43 43 43 42 42 41 39 37 36 34 32 30 29 28 28 29 29 29 29 29 29 27 27 27 26 25 24 23
5 5 10 16 22 26 27 25 23 22 25 27 26 23 20 18 18 18 19 21 22 23 25 28 30 32 33 34 35 36 37 37 38 38 39 39 38 37 36 36 36 35 34 36 37 37 37 38 39 40 41 41 42 43 44 46 46 46 45 45 45 44 43 42 43 41 39 37 36 34 33 32 31 29 29 30 30 30 30 30 29 28 28 28 26 25 25 25
12 16 20 23 25 25 23 22 22 24 27 27 25 23 21 18 17 18 19 19 19 19 20 22 25 27 29 31 32 32 33 34 34 35 36 36 37 36 36 35 35 35 36 36 37 37 38 38 38 38 39 40 39 39 41 43 43 43 43 43 44 44 44 43 43 41 39 38 37 35 33 33 32 31 30 30 30 30 30 30 29 28 28 28 27 27 27 27
19 23 24 23 23 21 23 25 24 22 23 23 23 23 22 18 18 20 20 17 16 16 17 17 19 21 23 25 26 27 28 29 31 32 34 34 35 36 36 36 36 36 38 38 38 38 39 39 39 39 40 40 41 40 41 42 42 42 42 42 43 44 44 44 42 41 40 39 38 35 34 33 32 31 31 30 30 30 30 29 29 29 30 30 29 28 28 28
23 23 22 20 19 20 23 27 26 24 23 21 21 23 21 18 17 18 19 18 17 18 18 16 14 15 18 20 21 23 24 26 28 31 33 35 35 36 36 36 37 38 39 39 39 39 39 39 40 40 40 41 41 41 41 42 42 42 42 42 43 43 43 42 41 40 40 39 38 36 35 34 32 32 32 32 31 31 31 30 29 29 30 30 30 30 29 29
20 19 17 17 18 21 24 26 26 25 24 22 22 23 21 19 17 16 17 18 20 21 21 18 14 13 15 16 19 21 22 24 27 30 33 34 35 36 36 36 37 38 39 39 39 39 39 39 40 39 39 40 41 41 42 42 42 42 41 42 42 43 43 43 42 41 40 40 39 38 37 36 34 33 33 32 32 31 31 30 29 28 28 28 29 29 28 28
15 16 17 18 20 23 24 24 23 23 24 23 22 22 21 19 17 16 15 17 21 22 21 18 16 16 16 15 17 21 23 24 27 29 31 32 33 34 34 35 35 36 38 39 39 38 38 38 39 40 39 39 40 41 41 41 41 40 40 41 41 43 44 44 43 42 41 40 39 39 38 37 35 34 33 33 32 31 31 30 29 27 27 27 26 26 26 27
20 21 23 24 26 26 25 23 22 21 22 22 21 21 20 18 17 16 14 16 21 22 21 20 20 19 18 15 15 20 24 26 28 30 31 31 32 32 32 33 33 34 35 36 36 36 37 37 38 39 39 38 39 40 40 39 39 40 40 41 41 42 43 43 43 42 41 41 40 39 38 37 36 35 34 33 33 32 31 30 29 28 28 27 27 28 28 29
Wind_Direction
259 258 258 257 257 257 257 257 256 255 255 254 254 253 253 252 252 251 251 251 250 249 248 248 247 247 247 246 246 245 245 244 243 242 241 239 239 238 238 239 238 237 237 237 237 238 239 240 241 242 243 244 244 244 245 245 243 241 238 237 236 238 239 239 238 239 240 239 237 235 234 234 233 232 232 233 233 232 232 233 235 237 237 237 238 240 243 246
259 258 257 257 256 255 256 256 256 255 255 254 253 253 253 252 252 251 250 250 250 249 248 247 247 246 246 245 245 245 245 244 243 242 240 240 240 239 239 240 239 238 238 237 237 237 237 238 239 240 242 243 243 243 244 245 245 243 239 236 234 236 237 236 235 236 238 238 236 234 233 232 231 230 229 230 230 228 229 231 232 234 236 238 239 241 244 246
261 260 259 258 257 256 255 254 254 254 254 254 254 253 253 252 252 251 250 249 249 249 248 247 247 246 245 244 244 244 244 244 243 242 241 241 241 240 240 240 239 238 238 237 236 236 236 237 238 239 240 242 243 243 243 244 244 244 241 235 232 233 234 234 233 234 236 236 236 234 231 230 229 229 227 227 226 224 224 227 231 234 237 238 238 241 244 247
262 261 260 259 258 257 256 255 254 254 253 253 253 253 253 252 252 251 250 249 249 248 248 247 246 246 245 244 243 243 243 243 242 242 241 241 241 241 239 239 238 237 236 236 236 235 236 236 237 238 239 240 241 242 242 243 243 243 241 234 229 230 232 232 232 233 235 235 235 233 231 229 228 228 227 226 224 221 219 220 223 227 232 236 238 241 243 245
264 262 260 259 258 258 257 256 255 254 253 253 252 252 252 252 252 251 250 249 248 248 247 246 246 245 245 244 243 242 242 242 241 241 241 241 241 241 239 238 237 236 235 235 235 234 235 235 236 236 237 239 240 241 241 241 242 241 238 231 225 226 229 230 230 232 234 235 235 233 231 230 229 227 227 227 223 217 216 218 217 219 222 226 230 235 239 243
265 263 262 260 259 258 257 256 255 255 254 253 252 252 251 251 251 251 250 249 248 247 247 246 245 244 244 243 243 242 241 241 240 239 239 240 241 241 239 238 236 236 235 234 234 233 233 234 234 235 236 237 238 239 240 239 239 239 235 229 223 223 227 228 228 230 233 234 234 233 231 231 229 228 228 228 224 215 211 213 215 219 222 224 226 230 234 238
266 265 263 262 260 259 258 257 256 255 254 253 253 252 251 250 250 249 249 249 248 247 246 245 245 244 243 243 242 241 240 240 239 238 238 239 239 240 239 237 236 235 235 234 233 232 233 233 232 233 233 234 236 237 238 238 237 237 232 225 220 220 224 227 227 229 231 232 233 232 231 232 231 230 229 229 228 220 211 212 216 220 224 225 226 229 232 235
268 266 264 263 261 260 259 258 256 255 254 253 252 252 251 250 250 249 248 248 247 247 246 245 244 243 242 242 242 241 240 239 239 237 236 236 237 238 237 236 235 235 235 234 232 231 230 231 230 230 231 232 233 234 236 236 236 236 230 221 217 218 221 223 224 227 229 230 231 231 231 231 231 230 229 229 229 225 219 219 222 224 225 225 226 229 233 236
270 268 266 264 263 262 260 259 257 256 255 253 252 251 251 250 249 249 248 247 246 246 245 244 243 242 242 242 242 241 238 237 238 237 235 235 235 236 236 235 234 234 234 233 231 230 229 229 228 228 229 229 230 231 232 233 234 233 227 219 215 216 219 221 222 225 227 229 230 229 229 230 231 230 228 229 230 229 227 226 224 225 226 226 227 229 232 233
271 270 268 266 265 263 262 260 259 257 256 254 252 251 250 249 249 248 247 247 246 245 245 244 243 242 241 241 241 240 237 236 238 237 234 234 234 234 235 234 233 232 232 232 231 229 228 228 228 227 227 227 228 229 231 232 232 230 226 220 214 215 219 219 221 224 224 227 228 228 228 228 230 228 226 228 230 231 230 228 226 226 226 227 230 231 231 230
273 271 270 268 266 265 263 261 260 258 257 255 253 252 250 249 248 247 247 246 246 245 244 243 243 241 241 240 240 238 236 235 237 236 234 233 232 232 233 233 231 231 231 230 229 228 227 226 226 226 227 227 227 229 230 231 231 229 228 221 213 215 219 218 220 223 223 226 227 227 228 228 229 227 225 228 229 231 232 230 229 227 228 231 232 232 231 230
275 273 271 269 268 266 264 262 260 258 257 256 254 253 251 249 248 247 246 245 245 244 244 243 242 241 240 239 239 237 235 235 235 235 233 231 231 230 231 231 230 229 229 228 226 226 226 225 225 226 226 227 227 229 229 229 230 229 227 219 213 215 218 218 220 221 223 226 227 227 228 228 227 225 225 228 230 232 233 233 233 232 234 235 234 234 234 231
277 275 272 270 269 266 264 262 260 258 257 256 254 253 251 250 248 247 246 245 244 243 243 242 241 240 239 237 238 238 235 234 235 235 233 230 229 229 229 229 228 227 227 226 225 224 224 224 224 225 225 225 226 228 228 228 229 228 225 217 212 216 218 218 219 220 222 226 227 227 228 229 227 225 226 229 231 234 235 235 236 237 239 238 236 237 236 229
278 275 273 271 269 267 265 263 260 258 256 255 253 252 251 250 248 247 246 244 243 242 241 241 241 239 238 235 235 237 235 233 233 234 233 230 228 228 228 228 226 225 224 224 224 224 224 223 222 223 224 225 226 227 227 226 227 227 223 216 211 214 217 218 218 219 221 225 227 227 229 230 228 226 227 230 233 236 236 236 237 239 241 240 238 238 233 224
279 276 273 271 269 267 265 263 261 258 256 254 252 251 250 249 248 246 246 244 243 242 240 240 239 239 238 233 233 236 235 233 231 231 232 228 226 226 226 226 225 223 222 222 222 222 223 222 222 223 223 224 226 227 226 225 225 225 222 216 211 211 216 217 217 218 220 224 226 226 230 232 231 228 228 231 231 231 230 230 232 236 239 239 237 235 227 220
280 277 274 272 270 268 266 264 261 258 256 253 251 250 249 248 247 245 244 243 242 241 240 239 238 238 237 231 231 234 234 231 229 230 231 227 224 224 224 224 223 222 221 220 220 220 220 219 219 220 221 222 224 225 226 225 225 225 222 217 210 209 214 217 216 218 219 222 224 225 229 232 233 231 230 232 229 224 219 219 226 233 237 235 230 228 224 221
281 279 276 274 271 269 266 264 261 258 255 252 250 248 247 246 245 244 243 242 241 240 239 238 237 236 235 231 229 232 232 231 230 230 230 226 223 221 222 222 221 221 220 219 219 219 219 218 217 218 218 219 221 223 223 223 224 225 223 217 210 207 213 216 216 218 219 222 224 224 227 231 232 230 231 232 226 217 213 215 223 227 228 229 226 228 228 224
284 281 278 276 272 269 266 264 261 258 255 251 248 246 244 243 243 242 241 240 240 239 237 236 235 234 233 229 227 228 230 229 228 229 228 225 222 220 220 220 219 219 219 219 218 218 218 217 216 217 217 218 219 220 220 222 223 225 225 219 210 207 212 215 215 217 218 220 222 222 224 229 230 228 229 230 223 214 216 220 222 219 221 228 230 232 234 228
287 284 281 278 274 271 267 264 261 258 255 252 248 245 243 241 240 240 239 238 237 237 236 234 233 232 230 227 225 225 227 227 226 226 225 223 221 218 218 218 218 218 218 218 217 217 218 217 217 217 217 218 219 219 219 221 223 224 223 218 209 206 212 215 215 216 217 218 221 221 222 226 228 227 229 232 226 217 218 219 219 225 236 242 241 239 236 227
289 287 284 281 278 274 270 265 262 258 256 252 248 245 242 240 239 238 237 235 235 235 234 232 231 230 228 225 223 222 224 225 224 224 222 220 218 216 215 217 217 217 217 217 217 216 217 217 218 219 219 218 218 218 217 218 220 220 218 215 209 206 211 216 216 216 217 219 220 220 221 223 225 227 229 232 229 221 221 225 230 239 247 248 246 243 233 224
292 290 288 285 282 278 273 268 263 258 255 252 249 246 242 240 238 236 235 234 232 232 233 231 228 227 225 223 221 220 222 224 223 222 220 218 216 214 213 214 215 216 216 215 215 215 216 218 218 217 216 216 216 215 214 214 217 218 216 214 209 205 209 214 216 216 217 219 220 220 220 222 224 226 229 232 231 226 225 231 237 240 243 244 242 239 229 220
296 295 292 289 286 282 277 271 265 258 253 250 248 246 243 240 238 236 234 232 230 229 230 230 227 224 222 220 219 218 220 222 222 222 220 217 215 214 212 213 214 214 215 214 214 213 215 216 216 214 212 211 212 211 209 211 214 215 214 212 209 205 208 213 214 215 217 219 220 219 220 223 224 226 229 231 232 231 228 229 231 233 237 237 238 240 228 213
301 299 296 293 290 285 279 272 265 257 251 247 245 244 242 239 237 235 233 231 228 226 226 227 226 221 219 218 216 216 217 219 221 220 219 217 214 213 212 213 213 213 214 214 214 214 215 214 213 211 210 210 210 209 207 208 211 213 212 211 208 205 208 212 212 214 215 218 221 220 221 224 225 227 230 231 232 233 233 231 229 231 237 237 240 248 233 210
304 302 299 296 292 285 274 265 260 255 247 242 240 240 239 237 235 233 232 230 226 224 223 224 223 219 217 216 213 213 215 216 218 218 216 216 214 211 210 211 213 213 214 214 213 214 215 214 212 210 210 210 210 209 207 208 210 212 211 210 206 206 210 212 211 212 213 216 220 220 223 225 226 228 230 232 233 234 234 233 231 231 235 242 245 241 228 212
306 304 302 298 292 280 262 254 254 250 244 238 233 233 233 233 232 231 230 228 224 222 221 222 221 217 215 215 211 210 213 214 217 216 214 213 212 211 209 209 211 212 213 213 213 213 212 211 211 210 210 210 210 209 208 208 209 211 211 208 205 206 210 212 212 211 211 215 218 220 223 225 226 229 231 232 233 234 236 235 233 229 230 241 239 219 207 202
308 305 302 297 290 272 247 242 248 248 244 234 224 223 225 225 226 229 230 227 222 220 220 220 218 216 215 213 210 210 212 213 216 216 212 210 210 209 208 208 209 210 210 212 212 212 211 209 208 208 208 209 210 209 208 207 208 209 208 206 205 206 210 212 212 211 211 214 217 219 222 224 225 228 230 232 233 234 236 236 232 228 231 237 227 208 200 194
311 307 300 294 285 259 235 236 245 244 240 227 211 207 210 210 216 226 227 224 219 217 218 218 216 214 212 211 209 208 210 212 215 215 211 209 209 208 206 206 208 209 208 209 210 211 210 208 207 206 206 207 209 209 208 208 207 207 205 204 204 206 209 213 213 212 211 213 216 219 221 225 226 226 228 230 232 232 234 236 232 229 235 233 215 207 203 194
316 309 298 290 269 237 227 233 237 234 226 206 189 180 185 198 212 223 223 219 216 213 215 216 214 212 209 208 206 206 208 211 214 214 209 207 208 207 206 205 207 208 208 209 209 210 209 206 206 206 205 206 207 207 208 208 208 205 203 203 203 204 208 212 213 213 212 213 216 219 221 225 227 225 225 228 231 230 230 233 231 230 233 225 211 209 206 199
322 313 296 281 240 218 220 226 229 224 196 174 164 157 168 196 210 217 217 212 209 209 211 213 212 209 207 206 204 203 205 207 210 210 207 206 206 205 205 204 204 206 207 210 211 210 209 206 205 206 207 207 207 207 207 208 207 204 202 202 202 203 206 210 213 213 212 213 215 219 222 226 229 227 225 225 226 226 228 230 228 227 226 217 209 207 204 203
327 314 297 274 225 206 208 219 216 193 171 162 158 156 171 199 211 214 211 203 201 204 207 209 209 206 205 204 203 203 204 205 206 205 203 204 205 203 202 202 202 203 204 208 210 209 208 205 204 204 204 206 206 206 207 207 206 202 200 202 202 203 205 209 213 213 213 214 215 219 222 225 229 228 226 224 220 221 226 226 223 222 221 214 207 203 201 203
334 317 299 265 207 193 196 209 194 172 163 161 163 167 176 198 216 213 200 190 194 200 202 205 205 202 202 202 202 203 204 205 205 202 199 201 202 201 200 199 199 201 202 205 207 206 205 204 203 203 203 203 203 204 205 206 205 201 199 201 201 202 204 209 212 213 215 216 214 218 223 225 227 227 226 222 216 216 221 221 220 220 218 212 205 202 200 201
345 335 313 214 179 182 197 193 166 154 152 155 161 170 182 200 211 203 188 179 187 196 198 201 201 199 199 200 200 201 204 205 204 200 198 200 201 199 199 199 199 200 199 201 204 204 204 204 203 201 201 202 203 204 205 205 203 201 200 201 201 201 204 208 211 212 215 216 214 215 221 225 225 225 224 219 213 213 215 216 215 214 213 211 207 205 205 209
4 20 77 131 153 169 169 155 150 146 144 145 152 167 187 197 193 182 174 169 179 193 194 195 196 197 197 197 197 198 200 204 203 199 196 198 200 199 198 198 200 202 201 201 202 201 201 202 202 201 200 200 202 205 207 206 204 202 201 202 203 203 204 207 210 212 216 217 214 214 220 224 224 222 219 215 212 212 213 214 212 208 207 209 208 208 210 216
30 52 86 112 127 138 141 143 144 139 134 136 148 165 186 185 166 160 159 155 171 189 187 187 191 194 196 195 195 196 197 199 200 197 196 196 198 198 197 197 199 201 203 205 206 203 201 202 201 200 199 199 201 203 206 208 207 204 203 203 205 207 207 209 212 214 217 219 216 216 220 224 225 221 216 213 211 213 213 214 216 210 206 208 207 205 209 215
53 72 85 98 112 123 130 134 133 131 133 142 154 166 176 164 150 150 150 141 169 184 181 181 186 191 193 192 192 194 196 196 195 194 195 197 197 197 197 197 199 200 200 203 206 206 204 204 203 201 199 199 201 202 202 203 204 204 204 204 206 208 210 212 214 216 219 220 218 218 222 226 226 221 215 212 211 214 215 216 219 217 213 210 207 203 207 212
54 68 77 88 101 114 126 134 137 140 144 149 158 166 163 153 146 148 146 129 168 178 177 179 182 186 191 190 190 192 193 193 192 192 193 195 196 196 196 197 200 202 201 201 203 205 205 205 204 202 200 200 201 202 202 203 203 201 202 204 206 208 210 212 215 217 221 222 220 220 223 227 226 220 213 210 210 214 217 218 221 222 219 215 213 213 209 206
48 55 65 79 94 110 129 142 141 140 144 152 161 160 152 147 144 145 137 133 169 175 175 178 180 183 187 188 189 191 192 190 189 191 193 193 194 194 195 196 199 202 202 201 202 204 206 206 205 201 200 201 202 202 203 205 206 205 205 204 205 208 211 213 216 218 221 223 222 221 223 226 225 218 212 209 209 215 219 220 223 225 223 221 223 222 209 199
62 78 91 101 111 117 125 129 128 132 147 158 153 148 146 140 135 134 130 148 172 173 173 177 179 180 182 185 189 191 191 189 187 189 191 193 193 193 194 195 198 201 202 202 202 202 205 207 206 202 199 199 201 202 203 204 206 207 207 206 205 209 213 214 216 219 221 224 223 222 222 225 225 218 212 208 209 215 220 221 223 226 228 228 227 222 211 205
75 94 103 107 113 119 121 121 126 135 145 151 150 151 148 134 126 132 137 157 172 171 172 175 176 177 178 183 188 190 190 188 187 187 188 191 192 192 194 195 197 199 200 201 203 203 203 204 204 202 200 199 200 202 203 205 205 204 205 205 205 211 214 215 218 221 223 225 226 225 223 224 225 220 213 208 208 214 220 221 222 225 229 230 228 223 217 212
74 81 81 88 96 111 122 130 144 145 143 155 159 154 143 126 121 130 139 159 170 169 170 172 173 176 177 181 186 188 188 187 187 186 187 189 191 192 195 196 196 198 198 199 202 202 203 203 203 201 200 200 202 202 203 206 207 206 206 204 205 209 212 214 218 221 225 227 228 227 226 225 226 223 216 210 209 212 218 221 222 223 225 227 228 224 215 211
77 68 56 68 76 93 131 149 155 152 152 158 155 141 126 115 116 129 147 162 167 167 167 169 172 175 177 180 184 185 186 186 186 186 186 188 190 192 195 197 197 197 198 199 200 200 201 202 202 202 201 202 203 202 203 205 208 211 211 210 210 212 212 213 216 218 222 226 227 227 227 225 224 223 218 213 210 212 217 220 221 223 224 225 225 219 211 211
55 48 41 44 52 113 151 150 150 153 153 147 135 117 109 108 119 143 158 159 161 164 166 167 170 174 177 181 183 183 184 185 185 185 186 187 189 193 195 197 199 198 198 200 201 199 199 201 202 202 202 203 203 202 203 205 207 210 212 212 214 218 217 217 219 219 220 224 226 227 227 224 221 220 219 215 213 215 219 222 224 226 227 225 221 213 207 212
25 10 20 31 55 130 143 145 148 149 143 128 105 95 102 113 132 151 154 154 159 163 164 167 170 173 177 180 182 183 184 185 186 185 185 186 189 192 195 197 200 199 197 198 200 199 198 200 201 200 200 200 201 201 202 204 206 208 208 209 212 217 219 220 222 223 224 225 227 228 228 226 219 216 217 217 216 216 219 223 225 228 228 224 216 207 206 212
34 6 18 50 116 143 145 147 146 136 119 94 81 91 107 124 141 146 147 152 158 160 164 167 169 174 178 180 182 184 184 185 186 185 185 186 187 190 193 196 199 200 199 198 198 199 199 199 200 199 198 198 198 198 201 203 205 207 207 207 210 214 217 219 221 222 223 225 227 229 229 228 222 215 215 217 217 217 219 221 224 228 229 226 217 209 207 213
56 23 81 125 141 142 137 135 129 113 89 73 79 99 116 128 135 138 144 151 154 158 163 166 170 174 178 181 183 184 185 185 185 186 186 185 186 189 191 193 195 198 199 199 198 198 200 201 201 201 200 200 200 199 201 203 204 205 205 206 209 213 216 218 220 221 222 223 225 227 227 228 225 218 214 215 216 218 218 218 223 227 229 227 222 215 213 216
80 106 129 135 136 131 123 115 100 81 72 78 94 111 121 126 128 132 138 143 148 155 161 166 171 175 178 182 184 185 186 185 185 186 186 185 186 188 189 191 192 192 195 198 199 197 198 201 203 202 202 204 205 204 204 205 206 206 206 206 207 211 215 217 220 221 222 223 225 226 226 227 226 222 217 215 215 217 218 220 224 227 226 227 227 223 221 221
105 122 125 123 119 111 100 88 76 72 78 89 104 119 130 131 124 123 126 130 138 146 155 164 170 174 179 182 185 186 186 185 184 184 186 186 187 187 188 190 190 190 192 196 198 198 197 199 201 202 201 203 205 206 206 208 209 208 208 208 208 210 214 217 219 220 221 223 225 226 226 226 226 225 222 218 216 217 219 222 224 224 223 225 227 228 228 227
111 120 116 108 100 86 74 77 86 99 105 101 101 115 132 131 113 111 117 119 128 136 143 153 163 171 178 181 183 184 184 184 182 182 184 187 188 188 189 189 189 189 191 194 196 197 197 198 199 201 201 201 203 205 206 208 209 209 209 210 210 212 215 217 219 220 221 223 224 226 228 227 226 226 225 223 221 219 218 219 220 220 221 222 224 228 231 233
108 109 101 87 75 65 70 86 99 111 117 112 107 113 123 121 111 113 118 120 123 127 128 130 139 158 169 174 178 179 179 180 181 183 185 187 189 190 190 190 190 190 192 194 194 194 195 197 199 200 200 201 203 204 205 207 209 209 209 209 210 213 216 219 221 221 222 223 224 226 228 228 227 227 226 225 225 223 220 218 218 218 219 220 224 228 233 236
95 90 78 64 60 67 79 91 97 104 115 124 127 124 122 120 119 118 123 128 126 123 122 114 112 137 156 162 169 173 176 178 180 183 187 188 189 190 191 192 192 191 192 194 194 193 193 196 198 199 200 201 203 204 205 206 208 209 209 209 210 212 215 218 220 221 222 223 224 225 227 228 227 227 227 227 227 227 226 225 225 224 223 224 227 231 235 241
66 65 64 64 74 86 94 101 108 120 133 136 133 130 128 129 130 125 125 134 132 129 129 121 115 127 137 148 165 170 172 177 180 183 188 189 189 190 192 192 193 193 194 195 196 194 193 196 198 199 200 202 203 205 206 206 208 209 209 209 210 212 214 216 219 221 222 224 224 225 227 229 229 229 229 230 230 231 232 232 233 233 233 234 236 239 242 246
68 74 80 86 95 102 107 114 120 128 135 134 131 133 132 129 129 126 124 133 139 139 137 134 131 128 127 138 161 170 173 176 179 183 187 189 190 190 192 194 194 195 196 198 198 195 193 197 200 201 201 202 204 206 206 207 208 209 209 209 210 212 215 217 218 220 223 224 226 227 228 229 231 232 232 233 234 234 235 237 238 239 241 243 244 246 248 250